Houston, TX

11:59 AM CDT on April 27, 2017 (GMT -0500)
Hobby

Weather History for KHOU - July, 2013

Change the Weather History Date:

Tuesday, July 30, 2013

  Actual Average Record
Temperature  
Mean Temperature 87 °F 85 °F  
Max Temperature 96 °F 95 °F 102 °F (1914)
Min Temperature 77 °F 75 °F 68 °F (1994)
Cooling Degree Days 22 20  
Month to date cooling degree days 575 582  
Year to date cooling degree days 1736 1754  
Since 1 June cooling degree days 1166 1102  
Growing Degree Days 35 (Base 50)    
Moisture  
Dew Point 73 °F    
Average Humidity 65    
Maximum Humidity 91    
Minimum Humidity 39    
Precipitation  
Precipitation 0.00 in 0.09 in 2.11 in (1954)
Month to date precipitation 4.09 3.70  
Year to date precipitation 17.87 28.02  
Sea Level Pressure  
Sea Level Pressure 30.09 in    
Wind  
Wind Speed 7 mph (South)    
Max Wind Speed 20 mph    
Max Gust Speed 23 mph    
Visibility 10 miles    
Events      
T = Trace of Precipitation, MM = Missing Value Source: NWS Daily Summary

Daily Weather History Graph

Daily Weather History Graph

Search for Another Location

Airport or City:

Trip Planner

Search our weather history database for the weather conditions in past years. The results will help you decide how hot, cold, wet, or windy it might be!

Date:

Astronomy

Jul. 30, 2013 Rise Set
Actual Time 6:39 AM CDT 8:14 PM CDT
Civil Twilight 6:13 AM CDT 8:40 PM CDT
Nautical Twilight 5:42 AM CDT 9:11 PM CDT
Astronomical Twilight 5:10 AM CDT 9:44 PM CDT
Moon 12:54 AM CDT (7/30) 2:37 PM CDT (7/30)
Length of Visible Light 14h 27m
Length of Day
13h 35m
Last Quarter, 41% of the Moon is Illuminated
Jul 30
Last Quarter
Aug 6
New
Aug 14
First Quarter
Aug 20
Full
Aug 28
Last Quarter

Hourly Weather History & Observations

Time (CDT) Temp. Heat Index Dew Point Humidity Pressure Visibility Wind Dir Wind Speed Gust Speed Precip Events Conditions
12:53 AM 79.0 °F - 73.9 °F 84% 30.10 in 10.0 mi SSE 3.5 mph - N/A   Scattered Clouds
1:53 AM 79.0 °F - 73.9 °F 84% 30.08 in 10.0 mi South 4.6 mph - N/A   Partly Cloudy
2:53 AM 79.0 °F - 73.9 °F 84% 30.07 in 10.0 mi South 6.9 mph - N/A   Partly Cloudy
3:53 AM 79.0 °F - 73.0 °F 82% 30.07 in 10.0 mi South 5.8 mph - N/A   Partly Cloudy
4:53 AM 77.0 °F - 73.0 °F 88% 30.08 in 10.0 mi South 4.6 mph - N/A   Scattered Clouds
5:53 AM 75.9 °F - 73.0 °F 91% 30.10 in 10.0 mi SSE 4.6 mph - N/A   Scattered Clouds
6:53 AM 75.9 °F - 73.0 °F 91% 30.11 in 10.0 mi SSE 4.6 mph - N/A   Mostly Cloudy
7:53 AM 78.1 °F - 73.9 °F 87% 30.12 in 10.0 mi SSW 4.6 mph - N/A   Mostly Cloudy
8:53 AM 82.9 °F 90.2 °F 75.0 °F 77% 30.13 in 10.0 mi SSW 8.1 mph - N/A   Mostly Cloudy
9:53 AM 84.9 °F 92.1 °F 73.9 °F 69% 30.13 in 10.0 mi SSW 10.4 mph - N/A   Mostly Cloudy
10:53 AM 87.1 °F 93.6 °F 72.0 °F 61% 30.14 in 10.0 mi WSW 10.4 mph - N/A   Mostly Cloudy
11:53 AM 90.0 °F 96.9 °F 72.0 °F 55% 30.14 in 10.0 mi SW 8.1 mph - N/A   Mostly Cloudy
12:53 PM 93.0 °F 99.0 °F 70.0 °F 47% 30.12 in 10.0 mi SSW 6.9 mph - N/A   Overcast
1:53 PM 93.9 °F 100.3 °F 70.0 °F 46% 30.09 in 10.0 mi SSE 8.1 mph 17.3 mph N/A   Overcast
2:53 PM 95.0 °F 100.7 °F 69.1 °F 43% 30.07 in 10.0 mi South 11.5 mph 16.1 mph N/A   Mostly Cloudy
3:53 PM 93.9 °F 104.0 °F 73.9 °F 52% 30.06 in 10.0 mi SSE 11.5 mph 20.7 mph N/A   Mostly Cloudy
4:53 PM 91.0 °F 100.4 °F 73.9 °F 57% 30.06 in 10.0 mi SSE 16.1 mph 21.9 mph N/A   Mostly Cloudy
5:53 PM 91.0 °F 99.3 °F 73.0 °F 55% 30.05 in 10.0 mi SSE 12.7 mph - N/A   Mostly Cloudy
6:53 PM 88.0 °F 94.7 °F 72.0 °F 59% 30.05 in 10.0 mi SSE 12.7 mph - N/A   Scattered Clouds
7:53 PM 84.9 °F 91.4 °F 73.0 °F 67% 30.06 in 10.0 mi SSE 12.7 mph - N/A   Scattered Clouds
8:53 PM 82.0 °F 87.9 °F 73.9 °F 76% 30.06 in 10.0 mi SSE 6.9 mph - N/A   Partly Cloudy
9:53 PM 81.0 °F 86.2 °F 73.9 °F 79% 30.07 in 10.0 mi South 3.5 mph - N/A   Partly Cloudy
10:53 PM 79.0 °F - 73.0 °F 82% 30.08 in 10.0 mi South 4.6 mph - N/A   Partly Cloudy
11:53 PM 79.0 °F - 73.0 °F 82% 30.09 in 10.0 mi South 4.6 mph - N/A   Partly Cloudy